Weather in Preobrazhenka

Russia / Kemerovo Oblast     56°02′15″N   88°34′03″E
temp.,
°C
wind,
m/s
gust,
m/s
humid.,
%
clouds,
%
prec.,
mm/h
press.,
hPa
HPBL,
m
24 january, sun
sun2401:00−19ssw349299 0.1 103178
04:00−17s3897100 0.3 1030314
07:00−17w41096100 0.8 1031657
10:00−20wnw3998100 0.3 1031396
13:00−20nw4696100 0.4 1033359
16:00−23nw3497100 0.1 1033269
19:00−28nw3599100 0.1 1037131
22:00−32wnw3699100 0.1 1039184
25 january, mon
mon2501:00−36wnw3499100 0.1 104380
04:00−39w479993 0.0 1045130
07:00−40w369775 0.0 1048108
10:00−39w379578 0.0 1048136
13:00−34w499081 0.0 1048545
16:00−33w3693100 0.0 1047296
19:00−37sse01100100 0.0 104819
22:00−36ese1199100 0.0 104619
26 january, tue
tue2601:00−36ese1298100 0.1 104519
04:00−38se229985 0.0 104319
07:00−38se1110052 0.0 104319
10:00−38ese119921 0.0 104319
13:00−33ne009321 0.0 1042133
16:00−33n119410 0.0 104219
19:00−37ese11975 0.0 104419
22:00−37se22960 0.0 104519
27 january, wed
wed2701:00−36se239615 0.0 104323
04:00−31se359597 0.0 104289
07:00−26ese469799 0.1 1038131
10:00−21se4799100 0.5 1034158
13:00−13sw61294100 1.5 1030834
16:00−12sw71494100 1.1 1027859
19:00−10wsw81693100 2.3 1025817
22:00−8wsw91793100 1.1 1024848
28 january, thu
thu2801:00−7wsw91691100 1.8 1023868
04:00−6wsw91593100 1.3 10231033
07:00−6wsw91693100 2.6 1023965
10:00−7wsw91693100 1.3 1024796
13:00−6wsw91590100 2.0 1024890
16:00−6wsw91692100 0.6 1023974
19:00−6wsw91792100 1.4 1023982
22:00−7wsw101694100 2.6 1022960